User: anonymous   Login
Location: State Camp
(41.2367°N, 77.7828°W)
Time: 19:29:39
(UTC-04:00)
Language:

Lacrosse 5 - Orbit

View from above orbital plane
View from above orbital plane
View from above satellite
View from above satellite

Ground track
Ground track

The orbit data is extracted from the following two-line orbital elements,

1 28646U 05016A   16241.84016853 0.00000000  00000-0  00000-0 0    00
2 28646  57.0130 137.0553 0004500 118.8499 241.1500 14.51933632    07
Epoch (UTC): 28 August 2016 20:09:50
Eccentricity: 0.0004500
inclination: 57.0130°
perigee height: 716 km
apogee height: 722 km
right ascension of ascending node: 137.0553°
argument of perigee: 118.8499°
revolutions per day: 14.51933632
mean anomaly at epoch: 241.1500°
orbit number at epoch: 0

The dashed part of the orbit path shows where the satellite is in the earth's shadow,  

DLR